Weather History for Fredericksburg, VA

Change the Weather History Date:

Thursday, April 25, 2013

  Actual Average (KNYG) Record (KNYG)
Temperature  
Mean Temperature 58 °F -  
Max Temperature 67 °F 67 °F 81 °F (2011)
Min Temperature 46 °F 46 °F 39 °F (1999)
Degree Days  
Heating Degree Days 8    
Growing Degree Days 8 (Base 50)    
Moisture  
Dew Point 35 °F    
Average Humidity 46    
Maximum Humidity 80    
Minimum Humidity 21    
Precipitation  
Precipitation 0.00 in - - ()
Sea Level Pressure  
Sea Level Pressure 30.21 in    
Wind  
Wind Speed 8 mph (North)    
Max Wind Speed 17 mph    
Max Gust Speed 31 mph    
Visibility 10 miles    
Events Rain    
Averages and records for this station are not official NWS values.
T = Trace of Precipitation, MM = Missing Value Source: NWS Daily Summary

Daily Weather History Graph

Daily Weather History Graph

Search for Another Location

Airport:

Trip Planner

Search our weather history database for the weather conditions in past years. The results will help you decide how hot, cold, wet, or windy it might be!

Date:

Astronomy

Apr. 25, 2013 Rise Set
Actual Time 6:20 AM EDT 7:55 PM EDT
Civil Twilight 5:52 AM EDT 8:23 PM EDT
Nautical Twilight 5:18 AM EDT 8:57 PM EDT
Astronomical Twilight 4:42 AM EDT 9:33 PM EDT
Moon 8:06 PM EDT (4/25) 6:01 AM EDT (4/25)
Length of Visible Light 14h 31m
Length of Day
13h 35m
Full, 100% of the Moon is Illuminated
Apr 25
Full
Apr 25
Full
May 2
Last Quarter
May 9
New
May 18
First Quarter

Hourly Weather History & Observations

Time (EDT) Temp. Dew Point Humidity Pressure Visibility Wind Dir Wind Speed Gust Speed Precip Events Conditions
12:15 AM 66.7 °F 50.9 °F 57% 29.98 in 10.0 mi NNW 17.3 mph 27.6 mph N/A   Overcast
12:35 AM 61.7 °F 50.7 °F 67% 30.01 in 10.0 mi NNW 8.1 mph 21.9 mph N/A Rain Light Rain
12:55 AM 60.8 °F 48.7 °F 64% 30.01 in 10.0 mi NNW 11.5 mph 20.7 mph N/A   Light Drizzle
1:15 AM 60.3 °F 49.5 °F 68% 30.02 in 10.0 mi North 9.2 mph - N/A   Overcast
1:35 AM 59.0 °F 49.8 °F 72% 30.03 in 10.0 mi North 8.1 mph 17.3 mph N/A Rain Light Rain
1:55 AM 57.9 °F 46.9 °F 67% 30.04 in 10.0 mi North 12.7 mph 20.7 mph N/A   Overcast
2:15 AM 56.8 °F 43.7 °F 61% 30.05 in 10.0 mi North 12.7 mph 16.1 mph N/A   Unknown
2:35 AM 56.5 °F 42.3 °F 59% 30.06 in 10.0 mi North 10.4 mph 19.6 mph N/A   Unknown
2:55 AM 55.8 °F 41.7 °F 59% 30.08 in 10.0 mi North 6.9 mph 18.4 mph N/A   Unknown
3:15 AM 54.9 °F 39.9 °F 57% 30.09 in 10.0 mi NNW 11.5 mph 20.7 mph N/A   Unknown
3:35 AM 53.6 °F 35.4 °F 50% 30.11 in 10.0 mi North 16.1 mph 31.1 mph N/A   Unknown
3:55 AM 52.3 °F 34.0 °F 50% 30.13 in 10.0 mi North 15.0 mph 29.9 mph N/A   Unknown
4:15 AM 51.6 °F 32.7 °F 49% 30.14 in 10.0 mi NNW 13.8 mph 24.2 mph N/A   Unknown
4:35 AM 51.1 °F 32.9 °F 50% 30.17 in 10.0 mi NNW 11.5 mph 25.3 mph N/A   Unknown
4:55 AM 50.5 °F 32.0 °F 49% 30.17 in 10.0 mi NNW 16.1 mph 27.6 mph N/A   Unknown
5:15 AM 50.0 °F 32.0 °F 50% 30.19 in 10.0 mi NNW 16.1 mph 21.9 mph N/A   Unknown
5:35 AM 49.3 °F 32.0 °F 51% 30.21 in 10.0 mi NNW 11.5 mph 21.9 mph N/A   Unknown
5:55 AM 48.9 °F 32.0 °F 52% 30.22 in 10.0 mi North 10.4 mph 24.2 mph N/A   Unknown
6:15 AM 48.6 °F 32.0 °F 53% 30.23 in 10.0 mi North 8.1 mph 17.3 mph N/A   Clear
6:35 AM 48.4 °F 32.2 °F 54% 30.24 in 10.0 mi North 5.8 mph - N/A   Clear
6:55 AM 48.6 °F 32.9 °F 55% 30.25 in 10.0 mi North 3.5 mph - N/A   Clear
7:15 AM 49.1 °F 33.1 °F 54% 30.26 in 10.0 mi North 4.6 mph - N/A   Clear
7:35 AM 49.5 °F 33.4 °F 54% 30.26 in 10.0 mi North 9.2 mph - N/A   Clear
7:55 AM 50.0 °F 33.1 °F 52% 30.27 in 10.0 mi North 15.0 mph 18.4 mph N/A   Clear
8:15 AM 50.2 °F 33.3 °F 52% 30.27 in 10.0 mi North 6.9 mph - N/A   Clear
8:35 AM 50.7 °F 33.3 °F 51% 30.27 in 10.0 mi North 9.2 mph - N/A   Clear
8:55 AM 50.9 °F 32.9 °F 50% 30.28 in 10.0 mi NNE 4.6 mph 18.4 mph N/A   Clear
9:15 AM 52.2 °F 33.1 °F 48% 30.28 in 10.0 mi NNW 5.8 mph - N/A   Clear
9:35 AM 53.1 °F 33.3 °F 47% 30.28 in 10.0 mi Calm Calm - N/A   Clear
9:55 AM 53.8 °F 32.5 °F 45% 30.28 in 10.0 mi North 5.8 mph - N/A   Clear
10:15 AM 54.7 °F 33.3 °F 44% 30.28 in 10.0 mi North 5.8 mph - N/A   Clear
10:35 AM 55.6 °F 31.8 °F 41% 30.28 in 10.0 mi NW 6.9 mph - N/A   Clear
10:55 AM 55.9 °F 33.3 °F 42% 30.28 in 10.0 mi NW 10.4 mph - N/A   Clear
11:15 AM 57.6 °F 32.5 °F 39% 30.28 in 10.0 mi North 10.4 mph - N/A   Clear
11:35 AM 57.9 °F 32.5 °F 38% 30.27 in 10.0 mi North 4.6 mph 10.4 mph N/A   Unknown
11:55 AM 58.8 °F 32.4 °F 37% 30.27 in 10.0 mi North 5.8 mph - N/A   Unknown
12:15 PM 59.7 °F 32.5 °F 36% 30.27 in 10.0 mi NNE 6.9 mph - N/A   Unknown
12:35 PM 61.3 °F 33.8 °F 36% 30.26 in 10.0 mi NW 4.6 mph - N/A   Unknown
12:55 PM 61.0 °F 31.3 °F 33% 30.25 in 10.0 mi North 5.8 mph - N/A   Clear
1:15 PM 62.2 °F 31.8 °F 32% 30.24 in 10.0 mi NE 5.8 mph - N/A   Clear
1:35 PM 62.2 °F 30.6 °F 30% 30.24 in 10.0 mi North 6.9 mph - N/A   Clear
1:55 PM 63.5 °F 31.5 °F 30% 30.23 in 10.0 mi NW 6.9 mph - N/A   Clear
2:15 PM 63.7 °F 27.9 °F 26% 30.23 in 10.0 mi Calm Calm - N/A   Clear
2:35 PM 65.1 °F 31.6 °F 29% 30.22 in 10.0 mi Calm Calm - N/A   Clear
2:55 PM 65.1 °F 27.7 °F 24% 30.22 in 10.0 mi Calm Calm - N/A   Clear
3:15 PM 66.2 °F 28.6 °F 24% 30.22 in 10.0 mi Calm Calm - N/A   Clear
3:35 PM 66.2 °F 28.2 °F 24% 30.21 in 10.0 mi Calm Calm - N/A   Clear
3:55 PM 66.4 °F 29.5 °F 25% 30.20 in 10.0 mi Calm Calm - N/A   Clear
4:15 PM 66.9 °F 29.1 °F 24% 30.20 in 10.0 mi Calm Calm - N/A   Clear
4:35 PM 67.3 °F 29.7 °F 25% 30.19 in 10.0 mi Calm Calm - N/A   Clear
4:55 PM 67.1 °F 28.0 °F 23% 30.19 in 10.0 mi Calm Calm - N/A   Clear
5:15 PM 67.5 °F 29.3 °F 24% 30.19 in 10.0 mi WSW 4.6 mph - N/A   Clear
5:35 PM 67.1 °F 25.5 °F 21% 30.19 in 10.0 mi Calm Calm - N/A   Clear
5:55 PM 67.1 °F 26.4 °F 22% 30.19 in 10.0 mi Calm Calm - N/A   Clear
6:15 PM 67.1 °F 27.5 °F 23% 30.19 in 10.0 mi Calm Calm - N/A   Clear
6:35 PM 66.6 °F 29.8 °F 25% 30.20 in 10.0 mi Calm Calm - N/A   Unknown
6:55 PM 65.5 °F 31.1 °F 28% 30.20 in 10.0 mi ESE 4.6 mph - N/A   Unknown
7:15 PM 62.8 °F 33.3 °F 33% 30.21 in 10.0 mi ESE 5.8 mph - N/A   Unknown
7:35 PM 60.4 °F 35.8 °F 40% 30.21 in 10.0 mi SE 3.5 mph - N/A   Unknown
7:55 PM 56.8 °F 37.2 °F 48% 30.21 in 10.0 mi SE 3.5 mph - N/A   Unknown
8:15 PM 58.5 °F 36.0 °F 43% 30.22 in 10.0 mi ESE 5.8 mph - N/A   Unknown
8:35 PM 56.8 °F 37.6 °F 49% 30.23 in 10.0 mi ESE 4.6 mph - N/A   Unknown
8:55 PM 54.7 °F 38.7 °F 55% 30.24 in 10.0 mi ESE 3.5 mph - N/A   Unknown
9:15 PM 52.2 °F 39.4 °F 62% 30.25 in 10.0 mi ESE 3.5 mph - N/A   Unknown
9:35 PM 53.8 °F 38.5 °F 56% 30.27 in 10.0 mi SE 5.8 mph - N/A   Unknown
9:55 PM 53.6 °F 38.8 °F 57% 30.27 in 10.0 mi Calm Calm - N/A   Unknown
10:15 PM 51.6 °F 38.8 °F 62% 30.28 in 10.0 mi Calm Calm - N/A   Clear
10:35 PM 50.2 °F 39.6 °F 67% 30.28 in 10.0 mi Calm Calm - N/A   Clear
10:55 PM 49.3 °F 40.1 °F 71% 30.28 in 10.0 mi Calm Calm - N/A   Clear
11:15 PM 48.6 °F 41.4 °F 76% 30.29 in 10.0 mi Calm Calm - N/A   Clear
11:35 PM 48.4 °F 40.8 °F 75% 30.30 in 10.0 mi Calm Calm - N/A   Clear
11:55 PM 46.6 °F 40.6 °F 80% 30.31 in 10.0 mi Calm Calm - N/A   Scattered Clouds